AirNav   Duncan Aviation - Near you to keep you flying
 
 504 users online  

H92 Hominy Municipal Airport
Hominy, Oklahoma, USA

GOING TO HOMINY?


FAA INFORMATION EFFECTIVE 03 NOVEMBER 2022

Location

FAA Identifier: H92
Lat/Long: 36-26-33.9000N 096-23-14.0000W
36-26.565000N 096-23.233333W
36.4427500,-96.3872222
(estimated)
Elevation: 825 ft. / 251 m (estimated)
Variation: 06E (1985)
From city: 2 miles N of HOMINY, OK
Time zone: UTC -6 (UTC -5 during Daylight Saving Time)
Zip code: 74035

Airport Operations

Airport use: Open to the public
Activation date: 04/1947
Control tower: no
ARTCC: KANSAS CITY CENTER
FSS: MC ALESTER FLIGHT SERVICE STATION
NOTAMs facility: MLC (NOTAM-D service available)
Attendance: UNATNDD
Wind indicator: lighted
Segmented circle: yes
Lights: ACTVT MIRL RY 17/35 - CTAF.
Beacon: white-green (lighted land airport)
Operates sunset to sunrise.

Airport Communications

CTAF: 122.9
WX AWOS-3 at OWP (20 nm SE): 118.325 (918-246-2635)

Nearby radio navigation aids

VOR radial/distance  VOR name  Freq  Var
BVOr209/29.4BARTLESVILLE VOR/DME117.9008E
TULr289/32.5TULSA VORTAC114.4008E
SWOr062/36.0STILLWATER VOR/DME108.4007E

Airport Services

Fuel available: 100LL
100LL:FUEL AVBL 24 HRS SELF SERVICE WITH CREDIT CARD.
Parking: tiedowns
Airframe service: NONE
Powerplant service: NONE
Bottled oxygen: NONE
Bulk oxygen: NONE

Runway Information

Runway 17/35

Dimensions: 3210 x 60 ft. / 978 x 18 m
Surface: asphalt, in good condition
Weight bearing capacity: 
Single wheel: 8.0
Runway edge lights: medium intensity
RUNWAY 17  RUNWAY 35
Latitude: 36-26.829500N36-26.300500N
Longitude: 096-23.233500W096-23.233500W
Elevation: 819.0 ft.820.0 ft.
Traffic pattern: leftleft
Runway heading: 174 magnetic, 180 true354 magnetic, 000 true
Displaced threshold: 180 ft.180 ft.
Markings: basic, in good conditionbasic, in good condition
Visual slope indicator: 4-light PAPI on left4-light PAPI on left
Obstructions: 16 ft. trees, 430 ft. from runway, 14:1 slope to clear14 ft. trees, 240 ft. from runway, 120 ft. right of centerline, 2:1 slope to clear

Airport Ownership and Management from official FAA records

Ownership: Publicly-owned
Owner: CITY OF HOMINY
219 W. 1ST ST., PO BOX 219
HOMINY, OK 74035
Phone 918-885-2164
Manager: JIMMIE RATLIFF
219 W. 1ST ST., PO BOX 219
HOMINY, OK 74035
Phone 918-885-2164
CITY MGR.

Airport Operational Statistics

Aircraft based on the field: 4
Single engine airplanes: 4
    
Aircraft operations: avg 33/month *
100% transient general aviation
* for 12-month period ending 25 June 2019

Additional Remarks

ULTRALIGHT ACTIVITY ON & INVOF ARPT.
FOR CD CTC KANSAS CITY ARTCC AT 913-254-8508.

Instrument Procedures

There are no published instrument procedures at H92.

Some nearby airports with instrument procedures:

KOWP - William R Pogue Municipal Airport (20 nm SE)
KBVO - Bartlesville Municipal Airport (26 nm NE)
KTUL - Tulsa International Airport (28 nm SE)
KRVS - Tulsa Riverside Airport (31 nm SE)
KCUH - Cushing Municipal Airport (35 nm SW)
 
Loc | Ops | Rwys | IFR | FBO | Links
Com | Nav | Svcs | Stats | Notes
Area around H92 (Hominy Municipal Airport)
 
Road maps at: MapQuest Bing Google
 
Aerial photo
WARNING: Photo may not be current or correct
Aerial photo of H92 (Hominy Municipal Airport)
Photo by David Heon
Taken in September 2016
looking west

Do you have a better or more recent aerial photo of Hominy Municipal Airport that you would like to share? If so, please send us your photo.

 
Sectional chart

 
Airport distance calculator
Flying to Hominy Municipal Airport? Find the distance to fly.

From to H92

Sunrise and sunset
Times for 30-Nov-2022
 Local
(UTC-6)
 Zulu
(UTC)
Morning civil twilight06:5112:51
Sunrise07:1913:19
Sunset17:1023:10
Evening civil twilight17:3823:38

Current date and time
Zulu (UTC)  30-Nov-2022 08:17:45
Local (UTC-6)  30-Nov-2022 02:17:45
 
METAR
KOWP 
20nm SE 
300755Z AUTO 35006KT 10SM CLR 00/M07 A3028 RMK AO2 T00001072
KBVO 
26nm NE 
300753Z AUTO 35005KT 10SM CLR M02/M08 A3029 RMK AO2 SLP256 T10221078
KTUL 
28nm SE 
300753Z 34011KT 10SM CLR M01/M07 A3026 RMK AO2 SLP248 T10111067
KRVS 
31nm SE 
300753Z AUTO 36007KT 10SM CLR 00/M08 A3027 RMK AO2 SLP254 T00001078
KCUH 
35nm SW 
300755Z AUTO 34004KT 10SM CLR M03/M07 A3027 RMK AO2 T10271072
KSWO 
38nm SW 
300753Z AUTO 32007KT 10SM CLR M02/M07 A3028 RMK AO2 SLP255 T10171072
KPNC 
39nm NW 
300753Z AUTO 36006KT 10SM CLR M04/M08 A3027 RMK AO2 SLP259 T10441083
TAF
KBVO 
26nm NE 
300520Z 3006/0106 34010KT P6SM SCT100 FM300900 35006KT P6SM SKC FM010000 VRB03KT P6SM SKC
KTUL 
28nm SE 
300520Z 3006/0106 34013G22KT P6SM BKN100 FM300900 35007KT P6SM SKC FM010000 VRB04KT P6SM SKC
KRVS 
31nm SE 
300520Z 3006/0106 34011G20KT P6SM BKN100 FM300900 35006KT P6SM SKC FM010000 VRB03KT P6SM SKC
NOTAMs
Click for the latest NOTAMs
NOTAMs are issued by the DoD/FAA and will open in a separate window not controlled by AirNav.

 

 
 

FBO, Fuel Providers, and Aircraft Ground Support

  
 Business Name 
 
 Contact 
 
 Services / Description 
 
Fuel Prices
 
Comments
  
City of Hominy 918-232-3347
no information available

If you are affiliated with City of Hominy and would like to show here your services, contact info, web link, logo, and more, click here
no prices available
 
   2 read write
Update Fuel Prices
 

Would you like to see your business listed on this page?

 If your business provides an interesting product or service to pilots, flight crews, aircraft, or users of the Hominy Municipal Airport, you should consider listing it here.  To start the listing process, click on the button below
 
Add a business
 

Other Pages about Hominy Municipal Airport

Update a link
 
Copyright © AirNav, LLC. All rights reserved. Privacy Policy  Contact